Regional Weather Roundup
Issued by NWS Little Rock, AR

Home | Current Version | Previous Version | Text Only | Print | Product List | Glossary On
Versions: 1 2 3 4 5 6 7 8 9 10 11 12 13 14 15 16 17 18 19 20 21 22 23 24 25 26 27 28 29 30 31 32 33 34 35 36 37 38 39 40 41 42 43 44 45 46 47 48 49 50
000
ASUS44 KLZK 310005
RWRLZK

WEATHER ROUNDUP FOR ARKANSAS
NATIONAL WEATHER SERVICE LITTLE ROCK AR
600 PM CST FRI JAN 30 2015

NOTE: "FAIR" INDICATES FEW OR NO CLOUDS BELOW 12,000 FEET WITH NO
SIGNIFICANT WEATHER AND/OR OBSTRUCTIONS TO VISIBILITY.

ARZ001-003-010-029-310100-
NORTHWEST ARKANSAS

CITY           SKY/WX    TMP DP  RH WIND       PRES   REMARKS
FAYETTEVILLE   CLOUDY    44  23  43 CALM      30.40R
6HR MIN TEMP:  39; 6HR MAX TEMP:  50;

FORT SMITH     MOCLDY    47  24  40 NE6       30.41S
6HR MIN TEMP:  43; 6HR MAX TEMP:  52;

HARRISON       PTCLDY    42  19  39 SE3       30.40F
6HR MIN TEMP:  40; 6HR MAX TEMP:  47;

BENTONVILLE    CLOUDY    45  19  36 CALM      30.41S
6HR MIN TEMP:  39; 6HR MAX TEMP:  48;

ROGERS         CLOUDY    44  21  40 CALM      30.41R
6HR MIN TEMP:  40; 6HR MAX TEMP:  47;

SILOAM SPGS    CLOUDY    45  19  36 NE3       30.42S
HIGHFILL       CLOUDY    44  20  38 CALM      30.40R
6HR MIN TEMP:  39; 6HR MAX TEMP:  49;

SPRINGDALE     MOCLDY    45  23  42 CALM      30.41F
$$

ARZ004-005-016-310100-
NORTH CENTRAL ARKANSAS

CITY           SKY/WX    TMP DP  RH WIND       PRES   REMARKS
BATESVILLE     CLEAR     39  23  52 SE6       30.45R
6HR MIN TEMP:  39; 6HR MAX TEMP:  50;

FLIPPIN        CLEAR     45  12  26 CALM      30.42F
6HR MIN TEMP:  39; 6HR MAX TEMP:  48;

MTN HOME       CLEAR     40  18  41 CALM      30.41F
6HR MIN TEMP:  40; 6HR MAX TEMP:  48;

$$

ARZ040-041-310100-
WEST CENTRAL ARKANSAS

CITY           SKY/WX    TMP DP  RH WIND       PRES   REMARKS
MENA           MOCLDY    50  25  37 CALM      30.38S
MOUNT IDA      PTCLDY    45  28  51 CALM      30.37F
6HR MIN TEMP:  45; 6HR MAX TEMP:  54;

$$

ARZ009-017-025-026-028-310100-
NORTHEAST ARKANSAS

CITY           SKY/WX    TMP DP  RH WIND       PRES   REMARKS
CORNING        FAIR      37  28  70 E8        30.47S
JONESBORO      MOCLDY    39  30  70 NE7       30.46R
6HR MIN TEMP:  39; 6HR MAX TEMP:  44;

NEWPORT        PTCLDY    38  31  76 NE7       30.47R
6HR MIN TEMP:  38; 6HR MAX TEMP:  45;

WALNUT RIDGE   MOCLDY    39  27  60 E6        30.46R
6HR MIN TEMP:  39; 6HR MAX TEMP:  45;

BLYTHEVILLE    PTCLDY    39  29  67 N9        30.46S
6HR MIN TEMP:  39; 6HR MAX TEMP:  49;

$$

ARZ022-023-033-042-044-310100-
CENTRAL ARKANSAS

CITY           SKY/WX    TMP DP  RH WIND       PRES   REMARKS
LITTLE ROCK    PTCLDY    43  23  45 E6        30.45R
6HR MIN TEMP:  43; 6HR MAX TEMP:  53;

N LITTLE ROCK  PTCLDY    45  28  50 SE6       30.45R
6HR MIN TEMP:  45; 6HR MAX TEMP:  51;

JACKSONVILLE   CLEAR     42  26  54 E3        30.43S
6HR MIN TEMP:  42; 6HR MAX TEMP:  52;

SEARCY         PTCLDY    42  24  49 E6        30.46R
6HR MIN TEMP:  42; 6HR MAX TEMP:  50;

HOT SPRINGS    PTCLDY    44  25  47 NE6       30.41S
6HR MIN TEMP:  44; 6HR MAX TEMP:  53;

RUSSELLVILLE   PTCLDY    44  28  53 SE3       30.42S
6HR MIN TEMP:  41; 6HR MAX TEMP:  51;

CLINTON        FAIR      39  27  60 CALM      30.45R
$$

ARZ036-310100-
EAST ARKANSAS

CITY           SKY/WX    TMP DP  RH WIND       PRES   REMARKS
WEST MEMPHIS   PTCLDY    41  29  62 N10       30.44R
6HR MIN TEMP:  41; 6HR MAX TEMP:  50;

$$

ARZ050-053-066-070-073-310100-
SOUTHWEST ARKANSAS

CITY           SKY/WX    TMP DP  RH WIND       PRES   REMARKS
ARKADELPHIA    FAIR      47  33  58 NE5       30.42S
6HR MIN TEMP:  47; 6HR MAX TEMP:  54;

CAMDEN         PTCLDY    45  28  53 MISG      30.41S
TEXARKANA      MOCLDY    47  31  53 NE3       30.40R
6HR MIN TEMP:  47; 6HR MAX TEMP:  54;

EL DORADO      PTCLDY    46  31  55 CALM      30.40R
6HR MIN TEMP:  45; 6HR MAX TEMP:  54;

DE QUEEN       MOCLDY    50  27  40 E7        30.37S
6HR MIN TEMP:  49; 6HR MAX TEMP:  56;

$$

ARZ056-057-069-310100-
SOUTHEAST ARKANSAS

CITY           SKY/WX    TMP DP  RH WIND       PRES   REMARKS
PINE BLUFF     PTCLDY    43  27  53 N6        30.44R
6HR MIN TEMP:  43; 6HR MAX TEMP:  49;

STUTTGART      CLEAR     43  27  52 NE6       30.45R
6HR MIN TEMP:  43; 6HR MAX TEMP:  48;

MONTICELLO     PTCLDY    46  30  53 N5        30.42S
6HR MIN TEMP:  46; 6HR MAX TEMP:  52;


$$




USA.gov is the U.S. government's official web portal to all federal, state and local government web resources and services.